GW0100 Weather Reports


time (UTC)temp
C
wind
direction
speed
KPH
gust
KPH
rain 1hr
cm
rain 24hr
cm
rain mn
cm
humidity
%
barometer
mb
20260504160153 23 308 3.2 17.7 0.00 0.00 0.00 46 1020.7
20260504151121 23 270 0.0 4.8 0.00 0.00 0.00 50 1020.8
20260504150618 23 104 4.8 6.4 0.00 0.00 0.00 49 1020.8
20260504150115 23 159 4.8 4.8 0.00 0.00 0.00 49 1020.7
20260504141044 22 121 6.4 6.4 0.00 0.00 0.00 55 1021.0
20260504140540 22 146 3.2 8.0 0.00 0.00 0.00 54 1021.0
20260504130504 18 176 3.2 4.8 0.00 0.00 0.00 83 1020.8
20260504110351 7 23 0.0 0.0 0.00 0.00 0.00 99 1020.3
20260504100309 7 106 0.0 0.0 0.00 0.00 0.00 99 1020.3
20260504081703 8 111 0.0 0.0 0.00 0.00 0.00 99 1020.5
20260504081159 8 90 0.0 3.2 0.00 0.00 0.00 99 1020.5
20260504080655 8 60 0.0 0.0 0.00 0.00 0.00 99 1020.6
20260504080152 8 60 0.0 1.6 0.00 0.00 0.00 99 1020.5
20260504070120 9 16 0.0 0.0 0.00 0.00 0.00 99 1020.7
20260504050508 10 95 3.2 3.2 0.00 0.00 0.00 99 1021.3
20260504050005 10 99 0.0 1.6 0.00 0.00 0.00 99 1021.5
20260504045501 10 74 0.0 0.0 0.00 0.00 0.00 99 1021.5
20260504044957 10 101 3.2 3.2 0.00 0.00 0.00 99 1021.4
20260504044455 10 103 1.6 1.6 0.00 0.00 0.00 99 1021.6
20260504043952 10 105 0.0 0.0 0.00 0.00 0.00 99 1021.5
20260504043449 10 105 0.0 0.0 0.00 0.00 0.00 99 1021.2
20260504042946 10 114 0.0 3.2 0.00 0.00 0.00 99 1021.2
20260504042443 10 151 0.0 3.2 0.00 0.00 0.00 99 1021.2
20260504041940 10 81 0.0 3.2 0.00 0.00 0.00 99 1021.2
20260504041436 10 114 0.0 1.6 0.00 0.00 0.00 99 1021.1
20260504040932 10 106 0.0 0.0 0.00 0.00 0.00 99 1021.1
20260504040430 10 180 0.0 0.0 0.00 0.00 0.00 98 1021.2
20260504035925 11 8 0.0 0.0 0.00 0.00 0.00 98 1021.3
20260504035423 11 90 0.0 0.0 0.00 0.00 0.00 96 1021.1
20260504034919 11 105 0.0 1.6 0.00 0.00 0.00 97 1021.3
20260504034417 11 106 0.0 1.6 0.00 0.00 0.00 97 1021.2
20260504033914 11 90 0.0 0.0 0.00 0.00 0.00 97 1021.3
20260504033412 11 90 0.0 0.0 0.00 0.00 0.00 97 1021.3
20260504032909 11 90 0.0 0.0 0.00 0.00 0.00 96 1021.3
20260504032405 11 114 0.0 0.0 0.00 0.00 0.00 95 1021.2
20260504031902 12 90 0.0 1.6 0.00 0.00 0.00 94 1021.3
20260504031359 12 60 0.0 3.2 0.00 0.00 0.00 91 1021.1
20260504030855 12 90 3.2 3.2 0.00 0.00 0.00 88 1021.2
20260504030353 11 77 1.6 3.2 0.00 0.00 0.00 95 1021.3
20260504025849 12 74 1.6 1.6 0.00 0.00 0.00 95 1021.2
20260504025346 12 114 0.0 1.6 0.00 0.00 0.00 94 1021.2
20260504024843 12 66 0.0 0.0 0.00 0.00 0.00 94 1021.3
20260504024339 12 74 1.6 1.6 0.00 0.00 0.00 89 1021.2
20260504023836 12 77 1.6 3.2 0.00 0.00 0.00 86 1021.1
20260504023333 12 90 1.6 3.2 0.00 0.00 0.00 88 1021.1
20260504022828 12 103 1.6 3.2 0.00 0.00 0.00 84 1021.0
20260504022326 12 85 3.2 3.2 0.00 0.00 0.00 87 1020.9
20260504021822 12 96 3.2 3.2 0.00 0.00 0.00 91 1021.1
20260504021320 12 90 0.0 3.2 0.00 0.00 0.00 91 1021.0
20260504020816 12 81 0.0 3.2 0.00 0.00 0.00 86 1021.1
20260504020313 13 82 0.0 3.2 0.00 0.00 0.00 88 1021.2
20260504015809 13 90 0.0 0.0 0.00 0.00 0.00 87 1021.0
20260504015305 13 90 0.0 1.6 0.00 0.00 0.00 81 1021.0
20260504014801 13 90 0.0 1.6 0.00 0.00 0.00 84 1021.0
20260504014258 13 106 0.0 0.0 0.00 0.00 0.00 85 1020.8
20260504013755 14 99 0.0 1.6 0.00 0.00 0.00 80 1020.8
20260504013253 14 105 1.6 3.2 0.00 0.00 0.00 76 1020.6
20260504012749 15 78 3.2 3.2 0.00 0.00 0.00 78 1020.6
20260504012247 15 90 0.0 1.6 0.00 0.00 0.00 82 1020.5
20260504011744 15 126 0.0 1.6 0.00 0.00 0.00 74 1020.5
20260504011241 15 195 0.0 1.6 0.00 0.00 0.00 72 1020.4
20260504010737 15 90 0.0 0.0 0.00 0.00 0.00 79 1020.3
20260504010232 15 90 0.0 0.0 0.00 0.00 0.00 72 1020.4
20260504005730 16 90 0.0 1.6 0.00 0.00 0.00 73 1020.4
20260504005227 16 90 0.0 3.2 0.00 0.00 0.00 66 1020.3
20260504004724 16 106 1.6 1.6 0.00 0.00 0.00 64 1020.2
20260504004221 17 90 0.0 0.0 0.00 0.00 0.00 68 1020.3
20260504003718 17 90 1.6 1.6 0.00 0.00 0.00 60 1020.1
20260504003215 17 103 1.6 3.2 0.00 0.00 0.00 56 1020.1
20260504002711 18 114 0.0 1.6 0.00 0.00 0.00 61 1020.2
20260504002208 18 23 0.0 1.6 0.00 0.00 0.00 51 1020.0
20260504001706 19 15 0.0 0.0 0.00 0.00 0.00 49 1020.0
20260504001203 20 353 0.0 0.0 0.00 0.00 0.00 49 1020.1
20260504000700 20 352 0.0 1.6 0.00 0.00 0.00 45 1019.8
20260504000157 21 277 0.0 1.6 0.00 0.00 0.00 45 1019.9
20260503235655 21 340 0.0 1.6 0.00 0.00 0.00 43 1019.7
20260503235151 22 352 0.0 4.8 0.00 0.00 0.00 42 1019.8
20260503234649 22 352 0.0 4.8 0.00 0.00 0.00 42 1019.7
20260503234147 22 349 3.2 3.2 0.00 0.00 0.00 41 1019.7
20260503233644 23 14 1.6 4.8 0.00 0.00 0.00 39 1019.7
20260503233139 23 283 3.2 6.4 0.00 0.00 0.00 38 1019.6
20260503232636 23 0 0.0 4.8 0.00 0.00 0.00 39 1019.6
20260503232134 23 313 4.8 6.4 0.00 0.00 0.00 38 1019.6
20260503231632 23 0 0.0 4.8 0.00 0.00 0.00 39 1019.8
20260503231128 23 13 4.8 8.0 0.00 0.00 0.00 38 1019.8
20260503230625 23 358 6.4 14.5 0.00 0.00 0.00 37 1019.7
20260503230122 23 0 1.6 12.9 0.00 0.00 0.00 39 1019.8
20260503225620 23 7 6.4 12.9 0.00 0.00 0.00 38 1019.7
20260503225119 23 250 3.2 11.3 0.00 0.00 0.00 38 1019.8
20260503224617 25 282 0.0 3.2 0.00 0.00 0.00 38 1019.9
20260503224115 23 340 6.4 8.0 0.00 0.00 0.00 38 1019.8
20260503223613 23 323 0.0 11.3 0.00 0.00 0.00 37 1019.9
20260503223108 23 200 8.0 14.5 0.00 0.00 0.00 38 1019.8
20260503222606 23 270 1.6 9.7 0.00 0.00 0.00 39 1020.0
20260503222104 23 292 3.2 12.9 0.00 0.00 0.00 38 1019.9
20260503221602 23 357 0.0 11.3 0.00 0.00 0.00 40 1019.8
20260503221059 23 9 6.4 12.9 0.00 0.00 0.00 39 1019.9
20260503220555 23 358 4.8 8.0 0.00 0.00 0.00 40 1019.9
20260503220052 23 261 9.7 14.5 0.00 0.00 0.00 39 1019.9
20260503215549 23 25 9.7 12.9 0.00 0.00 0.00 40 1019.8
20260503215046 24 358 6.4 11.3 0.00 0.00 0.00 41 1019.8
20260503214544 23 56 6.4 11.3 0.00 0.00 0.00 40 1020.0
20260503214040 25 314 8.0 9.7 0.00 0.00 0.00 40 1019.8
20260503213539 23 124 4.8 4.8 0.00 0.00 0.00 40 1019.8
20260503213035 24 353 9.7 9.7 0.00 0.00 0.00 41 1020.0
20260503212533 23 49 3.2 11.3 0.00 0.00 0.00 41 1020.1
20260503212030 23 13 8.0 19.3 0.00 0.00 0.00 40 1020.0
20260503211527 23 33 6.4 12.9 0.00 0.00 0.00 40 1020.1
20260503211022 23 79 4.8 12.9 0.00 0.00 0.00 39 1020.1
20260503210519 23 33 6.4 14.5 0.00 0.00 0.00 40 1020.1
20260503210015 23 56 11.3 17.7 0.00 0.00 0.00 39 1020.2
20260503205512 23 2 6.4 16.1 0.00 0.00 0.00 38 1020.2
20260503205008 23 4 6.4 8.0 0.00 0.00 0.00 40 1020.2
20260503204506 24 0 8.0 8.0 0.00 0.00 0.00 39 1020.4
20260503204002 24 241 4.8 9.7 0.00 0.00 0.00 39 1020.4
20260503203500 23 330 6.4 17.7 0.00 0.00 0.00 41 1020.5
20260503202956 24 250 12.9 12.9 0.00 0.00 0.00 39 1020.5
20260503202454 23 63 3.2 17.7 0.00 0.00 0.00 39 1020.8
20260503201953 23 335 9.7 19.3 0.00 0.00 0.00 40 1020.7
20260503201450 23 309 3.2 12.9 0.00 0.00 0.00 39 1020.8
20260503200947 23 255 1.6 9.7 0.00 0.00 0.00 38 1020.7
20260503200443 23 211 4.8 4.8 0.00 0.00 0.00 40 1021.0
20260503195940 23 332 6.4 17.7 0.00 0.00 0.00 38 1020.9
20260503195437 23 294 0.0 11.3 0.00 0.00 0.00 41 1021.1
20260503194933 23 323 3.2 12.9 0.00 0.00 0.00 41 1021.2
20260503194431 23 14 11.3 11.3 0.00 0.00 0.00 42 1021.3
20260503193926 23 270 16.1 17.7 0.00 0.00 0.00 40 1021.5
20260503193422 23 270 0.0 12.9 0.00 0.00 0.00 41 1021.5
20260503192917 23 11 9.7 12.9 0.00 0.00 0.00 42 1021.5
20260503192414 22 35 4.8 11.3 0.00 0.00 0.00 41 1021.7
20260503191910 23 270 3.2 8.0 0.00 0.00 0.00 40 1021.6
20260503191408 23 304 4.8 8.0 0.00 0.00 0.00 42 1022.0
20260503190904 23 262 3.2 16.1 0.00 0.00 0.00 41 1021.9
20260503190401 23 73 9.7 16.1 0.00 0.00 0.00 42 1021.9
20260503185858 23 22 4.8 14.5 0.00 0.00 0.00 42 1022.0
20260503185354 23 73 6.4 9.7 0.00 0.00 0.00 41 1021.9
20260503184854 22 98 6.4 12.9 0.00 0.00 0.00 38 1022.0
20260503184350 22 63 4.8 14.5 0.00 0.00 0.00 40 1022.0
20260503183846 22 43 9.7 20.9 0.00 0.00 0.00 37 1022.0
20260503183344 22 347 11.3 12.9 0.00 0.00 0.00 40 1022.1
20260503182841 22 46 6.4 14.5 0.00 0.00 0.00 38 1022.1
20260503182340 22 337 4.8 19.3 0.00 0.00 0.00 41 1022.3
20260503181837 22 354 16.1 17.7 0.00 0.00 0.00 40 1022.1
20260503181334 22 77 8.0 14.5 0.00 0.00 0.00 39 1022.0
20260503180830 22 33 0.0 12.9 0.00 0.00 0.00 43 1022.1
20260503180328 23 349 6.4 9.7 0.00 0.00 0.00 41 1022.1
20260503175824 22 294 1.6 9.7 0.00 0.00 0.00 41 1022.4
20260503175322 22 327 6.4 12.9 0.00 0.00 0.00 41 1022.6
20260503174817 22 357 4.8 8.0 0.00 0.00 0.00 44 1022.5
20260503174316 22 2 9.7 19.3 0.00 0.00 0.00 43 1022.7
20260503173811 22 351 9.7 14.5 0.00 0.00 0.00 43 1022.6
20260503173307 21 358 6.4 11.3 0.00 0.00 0.00 43 1022.8
20260503172804 22 291 9.7 17.7 0.00 0.00 0.00 42 1023.0
20260503172304 22 260 11.3 22.5 0.00 0.00 0.00 43 1023.0
20260503171758 21 28 8.0 17.7 0.00 0.00 0.00 44 1023.1
20260503171255 21 45 4.8 11.3 0.00 0.00 0.00 41 1023.0
20260503170752 21 327 6.4 14.5 0.00 0.00 0.00 41 1023.2
20260503170249 22 278 9.7 9.7 0.00 0.00 0.00 40 1023.3